Location: St. Louis
(38.6270°N, 90.1994°W)
Time: 14:04:10
(UTC-06:00)

Transit 4A - Pass Details

Date: 01 December 2021
Orbit: 864 x 980 km, 66.8° (Epoch: 16 January)

Event Time Altitude Azimuth Distance (km) Brightness Sun altitude
Rises 03:38:59 0° 340° (NNW) 3,607 - -38.6°
Reaches altitude 10° 03:41:59 10° 354° (N) 2,678 - -38.1°
Exits shadow 03:45:51 24° 30° (NNE) 1,883 9.7 -37.3°
Maximum altitude 03:47:05 25° 48° (NE) 1,823 9.7 -37.1°
Drops below altitude 10° 03:52:15 10° 103° (ESE) 2,717 11.1 -36.1°
Sets 03:55:18 0° 116° (ESE) 3,669 11.8 -35.5°
